Regional Weather Roundup
Issued by NWS

Home | Current Version | Previous Version | Text Only | Print | Product List | Glossary On
Versions: 1 2 3 4 5 6 7 8 9 10 11 12 13 14 15 16 17 18 19 20 21 22 23 24 25 26 27 28 29 30 31 32 33 34 35 36 37 38 39 40 41 42 43 44 45 46 47 48 49 50
000
ASUS46 KSEW 210910
RWRWA

WASHINGTON REGIONAL WEATHER ROUNDUP
NATIONAL WEATHER SERVICE SEATTLE WA
200 AM PDT MON AUG 21 2017

NOTE:"FAIR" INDICATES FEW OR NO CLOUDS BELOW 12,000 FEET WITH NO
SIGNIFICANT WEATHER AND/OR OBSTRUCTIONS TO VISIBILITY.

WAZ507-509-555>559-211000-
SEATTLE, TACOMA, EVERETT, AND VICINITY

CITY           SKY/WX    TMP DP  RH WIND       PRES   REMARKS
EVERETT        CLEAR     56  55  97 NW3       30.14F
BOEING FIELD   CLEAR     63  57  81 CALM      30.12S
RENTON         PTCLDY    64  56  75 NW7       30.12R
SEATAC AIRPORT PTCLDY    63  55  75 NE12      30.13S
JBLM-MCCHORD   CLEAR     59  56  92 NE3       30.11S
PUYALLUP       FAIR      55  54  94 CALM      30.12S
BREMERTON      CLEAR     57  54  89 NE5       30.13S
JBLM-FT LEWIS  CLEAR     59  56  89 SE3       30.11S
TACOMA NARROWS CLEAR     61  55  81 N6        30.12F
$$

WAZ001-503-506-510-514-515-211000-
NORTH INTERIOR

CITY           SKY/WX    TMP DP  RH WIND       PRES   REMARKS
BELLINGHAM     PTCLDY    56  54  93 CALM      30.12F
FRIDAY HARBOR  CLEAR     50  50 100 CALM      30.13S
EASTSOUND      CLEAR     57  55  94 S5        30.12S
PORT ANGELES   FOG       54  54 100 W3        30.14S VSB 1/4
EDIZ HOOK      FOG       54  53  98 W9        30.14S VSB 1/2
PORT TOWNSEND  FAIR      52  52 100 E5        30.13F
NAS WHIDBEY    FOG       56  52  86 SW3       30.17S VSB 1/2
ARLINGTON      CLEAR     53  51  93 N5        30.14S
BURLINGTON     CLEAR     54  54 100 CALM      30.14S
$$

WAZ020-022-039-040-504-511-512-211000-
SOUTHWEST INTERIOR

CITY           SKY/WX    TMP DP  RH WIND       PRES   REMARKS
SHELTON        CLEAR     55  53  93 NW3       30.11R
OLYMPIA        CLEAR     56  53  90 CALM      30.12R
CHEHALIS       FAIR      57  57 100 CALM      30.11S
KELSO          CLEAR     61  58  90 N3        30.09F
VANCOUVER      CLEAR     64  59  83 CALM      30.06S
SCAPPOOSE, OR  CLEAR     64  55  72 NW7       30.05F
PORTLAND, OR   CLEAR     64  58  80 NW6       30.06F
$$

WAZ021-516-517-211000-
WASHINGTON COAST

CITY           SKY/WX    TMP DP  RH WIND       PRES   REMARKS
FORKS          CLOUDY    59  57  93 N5        30.14S
HOQUIAM        CLEAR     56  55  97 CALM      30.13S
ASTORIA, OR    CLOUDY    58  56  93 NW12      30.11S
$$

WAZ019-023-024-040-567>569-211000-
CASCADE MOUNTAINS AND COLUMBIA GORGE

CITY           SKY/WX    TMP DP  RH WIND       PRES   REMARKS
STAMPEDE PASS  CLEAR     52  48  86 SW5       30.19S
TROUTDALE, OR  PTCLDY    62  57  83 CALM      30.06S
HOOD RIVER, OR SUNNY     57  52  82 CALM      30.06R
THE DALLES, OR CLEAR     67  55  65 SW3       30.02R
$$

WAZ026-027-041>044-520-521-211000-
EAST SLOPES

CITY           SKY/WX    TMP DP  RH WIND       PRES   REMARKS
OMAK           PTCLDY    67  43  41 NW12      30.07R
WENATCHEE      CLEAR     69  49  48 N10       30.06R
ELLENSBURG     CLEAR     60  48  64 NE5       30.08R
YAKIMA         CLEAR     63  49  60 W5        30.05S
SUNNYSIDE ARPT   N/A     51  48  90 N3        30.03S
YAKIMA TC      FAIR      65  47  51 E10       30.04S
$$

WAZ028-034-035-211000-
COLUMBIA BASIN

CITY           SKY/WX    TMP DP  RH WIND       PRES   REMARKS
EPHRATA        CLEAR     63  41  44 N5        30.04R
MOSES LAKE     CLEAR     57  47  69 N6        30.04R
PASCO          CLEAR     55  50  83 NW3       30.03R
RICHLAND ARPT  SUNNY     59  52  77 CALM      30.03R
HERMISTON, OR  CLEAR     54  45  71 SE3       30.02R
$$

WAZ036>038-211000-
NORTHEAST WASHINGTON

CITY           SKY/WX    TMP DP  RH WIND       PRES   REMARKS
SPOKANE GEIGER PTCLDY    61  38  42 S3        30.09F
SPOKANE FELTS  CLEAR     59  43  55 NE6       30.09S
FAIRCHILD AFB  CLEAR     55  37  50 CALM      30.10S
COEURDALENE,ID CLEAR     54  41  61 MISG      30.11S
DEER PARK      CLEAR     51  36  56 CALM      30.09F
$$

WAZ029>033-211000-
SOUTHEAST WASHINGTON

CITY           SKY/WX    TMP DP  RH WIND       PRES   REMARKS
PULLMAN        CLEAR     51  37  58 CALM      30.12S
LEWISTON, ID   CLEAR     64  42  44 CALM      30.07R
WALLA WALLA    CLEAR     65  39  38 E7        30.04S
PENDLETON, OR  CLEAR     62  40  44 SE12      30.05S
$$



USA.gov is the U.S. government's official web portal to all federal, state and local government web resources and services.